This is the latest recevied weather packets stored in our database for station/object N9PBY-2. If no packets are shown the sender has not sent any weather packets the latest 10 day(s).
| Time | Temp. | Humidity | Pressure | Rain* | Wind** | Luminosity | Snow |
|---|---|---|---|---|---|---|---|
| 1777567206 | 9.44° C | 42% | 1016.3 hPa | 0 mm | - | - | - |
| 1777566607 | 9.44° C | 42% | 1016.3 hPa | 0 mm | - | - | - |
| 1777566007 | 9.44° C | 44% | 1016.4 hPa | 0 mm | - | - | - |
| 1777565406 | 8.89° C | 43% | 1016.4 hPa | 0 mm | - | - | - |
| 1777564807 | 8.89° C | 41% | 1016.4 hPa | 0 mm | - | - | - |
| 1777564207 | 9.44° C | 42% | 1016.3 hPa | 0 mm | - | - | - |
| 1777563607 | 9.44° C | 46% | 1016.4 hPa | 0 mm | - | - | - |
| 1777563007 | 8.89° C | 49% | 1016.4 hPa | 0 mm | - | - | - |
| 1777562407 | 8.33° C | 53% | 1016.4 hPa | 0 mm | - | - | - |
| 1777561807 | 7.78° C | 50% | 1016.5 hPa | 0 mm | - | - | - |
| 1777561207 | 7.78° C | 51% | 1016.6 hPa | 0 mm | - | - | - |
| 1777560607 | 7.78° C | 54% | 1016.7 hPa | 0 mm | - | - | - |
| 1777560007 | 7.22° C | 52% | 1016.6 hPa | 0 mm | - | - | - |
| 1777559406 | 7.22° C | 56% | 1016.7 hPa | 0 mm | - | - | - |
| 1777558807 | 6.67° C | 58% | 1016.6 hPa | 0 mm | - | - | - |
| 1777558207 | 6.11° C | 58% | 1016.6 hPa | 0 mm | - | - | - |
| 1777557607 | 6.11° C | 61% | 1016.6 hPa | 0 mm | - | - | - |
| 1777557007 | 5.56° C | 64% | 1016.6 hPa | 0 mm | - | - | - |
| 1777556408 | 5.56° C | 65% | 1016.7 hPa | 0 mm | - | - | - |
| 1777555807 | 5° C | 68% | 1016.6 hPa | 0 mm | - | - | - |
| 1777555207 | 4.44° C | 72% | 1016.6 hPa | 0 mm | - | - | - |
| 1777554607 | 3.89° C | 76% | 1016.7 hPa | 0 mm | - | - | - |
| 1777554007 | 3.33° C | 80% | 1016.6 hPa | 0 mm | - | - | - |
| 1777553408 | 3.33° C | 81% | 1016.6 hPa | 0 mm | - | - | - |
| 1777552807 | 2.78° C | 81% | 1016.6 hPa | 0 mm | - | - | - |
* Rain latest hour (hover to see other rain measurements)
** Current wind speed in m/s (hover to see current wind gust speed)